Regional Weather Roundup
Issued by NWS

Home | Current Version | Previous Version | Text Only | Print | Product List | Glossary Off
Versions: 1 2 3 4 5 6 7 8 9 10 11 12 13 14 15 16 17 18 19 20 21 22 23 24 25 26 27 28 29 30 31 32 33 34 35 36 37 38 39 40 41 42 43 44 45 46 47 48 49 50

000
ASUS45 KPSR 022200
RWRAZ

PRELIMINARY ARIZONA REGIONAL HOURLY WEATHER ROUNDUP
NATIONAL WEATHER SERVICE PHOENIX AZ
300 PM MST MON MAR 02 2015

NOTE: FAIR INDICATES FEW OR NO CLOUDS BELOW 12,000 FEET WITH NO
SIGNIFICANT WEATHER AND/OR OBSTRUCTIONS TO VISIBILITY.

AZZ001>003-036-022300-
NORTHWEST ARIZONA

CITY           SKY/WX    TMP DP  RH WIND       PRES   REMARKS
BULLHEAD CITY  RAIN      57  45  62 S17G26    29.84S
KINGMAN        PTSUNNY   48  41  76 SW16      29.84S
$$

AZZ004>008-015-016-018-022300-
NORTH CENTRAL ARIZONA

CITY           SKY/WX    TMP DP  RH WIND       PRES   REMARKS
GRAND CANYON   SNOW      31  30  96 SW14      29.81S VSB 1/2 WCI  21
PRESCOTT       LGT RAIN  40  33  76 SW18G25   29.88R WCI  31
FLAGSTAFF      NOT AVBL
PAYSON         LGT SNOW  36  34  93 W9G16     29.93R WCI  29
PAGE           LGT RAIN  43  38  82 E7        29.75F
$$

AZZ009>014-017-022300-
NORTHEAST ARIZONA

CITY           SKY/WX    TMP DP  RH WIND       PRES   REMARKS
WINSLOW        LGT RAIN  43  39  86 W21G28    29.86R
SAINT JOHNS    MOSUNNY   58  32  37 S32G41    29.78F
WINDOW ROCK    CLOUDY    52  34  50 SW31G43   29.80F
SHOW LOW       LGT RAIN  41  37  87 S22G43    29.84F
$$

AZZ023-022300-
GREATER PHOENIX AREA

CITY           SKY/WX    TMP DP  RH WIND       PRES   REMARKS
PHOENIX        LGT RAIN  52  47  83 CALM      29.92R
BUCKEYE        CLOUDY    54  54 100 S6        29.93S
GLENDALE       LGT RAIN  54  48  82 S5        29.94S
DEER VALLEY    LGT RAIN  51  45  79 W5        29.90F
SCOTTSDALE     LGT RAIN  51  45  79 SW3       29.95S
MESA-FALCON    CLOUDY    48  48 100 N9        29.93S
MESA-GATEWAY   RAIN      50  48  93 W16       29.96R
CHANDLER       LGT RAIN  52  50  93 VRB3      29.95R
$$

AZZ027-028-022300-
SOUTHWEST MARICOPA COUNTY AND PINAL COUNTY

CITY           SKY/WX    TMP DP  RH WIND       PRES   REMARKS
CASA GRANDE    CLOUDY    52  46  82 W8        29.94R
GILA BEND      PTSUNNY   56  48  74 SW5       29.95R
$$

AZZ503-504-507>509-022300-
SOUTHEAST ARIZONA

CITY           SKY/WX    TMP DP  RH WIND       PRES   REMARKS
TUCSON         CLOUDY    67  45  45 S28G38    29.91R
DAVIS-MONTHAN  CLOUDY    66  45  47 S26G36    29.89R
RYAN FIELD       N/A     66  48  52 S28G43    29.90R
NOGALES        LGT RAIN  55  49  80 S18G29    29.96S
SIERRA VISTA   LGT RAIN  55  48  76 SW16      29.96S
SAFFORD        CLOUDY    67  44  43 S20G28    29.85S
$$

AZZ020-021-025-026-031-022300-
SOUTHWEST ARIZONA

CITY           SKY/WX    TMP DP  RH WIND       PRES   REMARKS
YUMA           PTSUNNY   64  47  53 SW8       29.89F
$$

CAZ031-033-041-043-047-048-061-022300-
SOUTHERN CALIFORNIA

CITY           SKY/WX    TMP DP  RH WIND       PRES   REMARKS
DOWNTOWN L.A.  CLOUDY    59  42  53 VRB3      29.89F
L.A. AIRPORT   PTSUNNY   59  42  53 W9        29.90F
SAN DIEGO      RAIN      55  48  77 NW14G24   29.97R
BURBANK        LGT RAIN  53  41  63 CALM      29.89S
ONTARIO        MOSUNNY   54  40  59 CALM      29.90F
RIVERSIDE      MOSUNNY   55  40  56 CALM      29.91S
PALM SPRINGS   HVY RAIN  53  49  86 NW22      29.89S
EL CENTRO NAS  PTSUNNY   58  44  60 W14       29.90F
IMPERIAL       PTSUNNY   59  46  62 W14G23    29.90S
BLYTHE         MOSUNNY   62  45  53 SW13      29.87F
$$

NVZ020-UTZ003-022300-
SOUTHERN NEVADA-UTAH

CITY           SKY/WX    TMP DP  RH WIND       PRES   REMARKS
LAS VEGAS      PTSUNNY   58  32  37 SW22G29   29.73S
SALT LAKE CITY CLOUDY    41  34  76 W9        29.66S
$$

NMZ009-TXZ055-022300-
NEW MEXICO-WEST TEXAS

CITY           SKY/WX    TMP DP  RH WIND       PRES   REMARKS
ALBUQUERQUE    CLOUDY    59  33  37 S25G39    29.86F
EL PASO        LGT RAIN  57  43  59 S8        29.96F
$$


........................KEY........................
SKY/WX - SKY CONDITION/WEATHER
TMP    - TEMPERATURE IN FAHRENHEIT
DP     - DEW POINT IN FAHRENHEIT
RH     - RELATIVE HUMIDITY IN PERCENT
WIND   - DIRECTION AND SPEED IN MILES PER HOUR (MPH)
VRB    - VARIABLE WIND DIRECTION
PRES   - MEAN SEA LEVEL PRESSURE IN INCHES OF MERCURY
         F - FALLING PRESSURE   R - RISING PRESSURE
         S - STEADY PRESSURE
VSB    - VISIBILITY IN MILES
HX     - HEAT INDEX IN FAHRENHEIT
WCI    - WIND CHILL INDEX IN FAHRENHEIT
TC     - TEMPERATURE IN CELSIUS WHICH IS ALSO KNOWN AS
         TEMPERATURE IN CENTIGRADE
AFB    - AIR FORCE BASE
         LUKE AFB IS LUKE AIR FORCE BASE
         DAVIS-MONTHAN IS DAVIS-MONTHAN AIR FORCE BASE
NAS    - NAVAL AIR STATION
         EL CENTRO NAS IS EL CENTRO NAVAL AIR STATION
N/A    - NOT AVAILABLE


USA.gov is the U.S. government's official web portal to all federal, state and local government web resources and services.